Voltar ao catálogo

CZ-6A DEB

AtivoPO
NORAD 61429·DEBRIS·🇨🇳 China

Lançado Aug 6, 2024 de Taiyuan Satellite Launch Center

Loading…

Próximas Passagens (próximas 24 horas)

TLE

AtualizadoSource: Space-Track

Época: Sep 14, 2026, 22:51 UTC

1 61429U 24140YW  26257.95276566  .00004089  00000-0  10976-2 0  9997
2 61429  88.9582 258.3450 0143983  81.7833 279.9670 14.41943511108382

Acompanhe CZ-6A DEB em tempo real com AllMySat

Download on the App Store